This is the latest recevied weather packets stored in our database for station/object OM7ABC-15. If no packets are shown the sender has not sent any weather packets the latest 10 day(s).
| Time | Temp. | Humidity | Pressure | Rain* | Wind** | Luminosity | Snow |
|---|---|---|---|---|---|---|---|
| 1777536576 | 21.67° C | 42% | 994.6 hPa | - | - | - | - |
| 1777535676 | 21.67° C | 42% | 994.8 hPa | - | - | - | - |
| 1777534776 | 21.67° C | 42% | 994.9 hPa | - | - | - | - |
| 1777533876 | 21.67° C | 42% | 994.9 hPa | - | - | - | - |
| 1777532976 | 21.67° C | 41% | 995 hPa | - | - | - | - |
| 1777532076 | 21.67° C | 40% | 995.1 hPa | - | - | - | - |
| 1777531176 | 21.67° C | 40% | 995 hPa | - | - | - | - |
| 1777530276 | 21.67° C | 40% | 995 hPa | - | - | - | - |
| 1777529375 | 21.67° C | 38% | 995 hPa | - | - | - | - |
| 1777528475 | 21.67° C | 36% | 994.7 hPa | - | - | - | - |
| 1777527575 | 21.11° C | 35% | 994.8 hPa | - | - | - | - |
| 1777526675 | 21.11° C | 33% | 994.8 hPa | - | - | - | - |
| 1777525775 | 21.11° C | 30% | 994.9 hPa | - | - | - | - |
| 1777524875 | 20.56° C | 28% | 995 hPa | - | - | - | - |
| 1777523975 | 21.67° C | 38% | 995 hPa | - | - | - | - |
| 1777523075 | 21.67° C | 38% | 994.9 hPa | - | - | - | - |
| 1777522175 | 21.67° C | 38% | 994.7 hPa | - | - | - | - |
| 1777521275 | 21.67° C | 38% | 994.6 hPa | - | - | - | - |
| 1777520375 | 21.67° C | 38% | 994.4 hPa | - | - | - | - |
| 1777519475 | 21.67° C | 39% | 994.4 hPa | - | - | - | - |
| 1777518574 | 21.67° C | 38% | 994.2 hPa | - | - | - | - |
| 1777517674 | 21.67° C | 38% | 994.1 hPa | - | - | - | - |
| 1777516774 | 21.67° C | 38% | 994.1 hPa | - | - | - | - |
| 1777515874 | 21.67° C | 38% | 994 hPa | - | - | - | - |
| 1777514974 | 21.67° C | 38% | 994.1 hPa | - | - | - | - |
* Rain since midnight (hover to see other rain measurements)
** Current wind speed in m/s (hover to see current wind gust speed)